Location: ???????
(52.3000°N, 54.4667°E)
Time: 12:28:14
(UTC+00:00)

Cosmos 1607 - Pass Details

Date: 24 January 2020
Orbit: 923 x 979 km, 65.0° (Epoch: 21 February)

Event Time Altitude Azimuth Distance (km) Brightness Sun altitude
Rises 13:24:34 0° 215° (SW) 3,559 8.1 -5.1°
Reaches altitude 10° 13:27:05 10° 214° (SW) 2,621 7.3 -5.4°
Maximum altitude 13:33:11 79° 129° (SE) 954 4.0 -6.3°
Drops below altitude 10° 13:39:23 10° 44° (NE) 2,662 5.7 -7.1°
Enters shadow 13:40:23 - 44° (NE) 3,034 6.0 -7.3°
